Regional Weather Roundup
Issued by NWS Green Bay, WI

Home | Current Version | Previous Version | Text Only | Print | Product List | Glossary Off
Versions: 1 2 3 4 5 6 7 8 9 10 11 12 13 14 15 16 17 18 19 20 21 22 23 24 25 26 27 28 29 30 31 32 33 34 35 36 37 38 39 40 41 42 43 44 45 46 47 48 49 50

000
ASUS43 KGRB 230411
RWRGRB

NORTH-CENTRAL AND NORTHEAST WISCONSIN REGIONAL WEATHER ROUNDUP
NATIONAL WEATHER SERVICE GREEN BAY WI
1100 PM CDT FRI MAY 22 2015

WIZ005-009-010>012-018-019-230500-
NORTH CENTRAL WISCONSIN

CITY           SKY/WX    TMP DP  RH WIND       PRES   REMARKS
IRONWOOD       CLEAR     57  28  33 S9        30.17S
MANITOWISH WTR CLEAR     43  36  78 CALM      30.22S
ARBOR VITAE    CLEAR     46  34  64 CALM      30.23S
EAGLE RIVER    CLEAR     42  31  65 CALM      30.23R
LAND O LAKES   CLEAR     38  32  77 CALM      30.23S
RHINELANDER    CLEAR     41  33  73 CALM      30.24R
PHILLIPS       CLEAR     45  39  80 CALM      30.22S
ANTIGO         CLEAR     46  37  69 SE6       30.25S
TOMAHAWK       CLEAR     41  35  78 CALM      30.24S
MERRILL        CLEAR     46  39  78 CALM      30.25R
$$

WIZ013-073-230500-
NORTHEAST WISCONSIN

CITY           SKY/WX    TMP DP  RH WIND       PRES   REMARKS
IRON MOUNTAIN  CLEAR     44  32  62 SE5       30.25S
MARINETTE      CLEAR     46  28  49 S8        30.27S
OCONTO         CLEAR     42  34  72 CALM      30.27R
$$

WIZ017-030-035>037-045-230500-
CENTRAL WISCONSIN

CITY           SKY/WX    TMP DP  RH WIND       PRES   REMARKS
MEDFORD        CLEAR     47  38  71 S3        30.24S
WAUSAU         CLEAR     55  41  59 E3        30.22S
MOSINEE        PTCLDY    52  37  58 CALM      30.25S
MARSHFIELD     PTCLDY    54  39  57 CALM      30.24S
WISC RAPIDS    PTCLDY    49  36  61 CALM      30.25R
STEVENS POINT  PTCLDY    46  38  74 CALM      30.25S
WAUPACA        PTCLDY    54  36  49 SE5       30.26R HAZE
SHAWANO        CLEAR     51  37  58 CALM      30.26R
CLINTONVILLE   PTCLDY    52  36  54 SE3       30.25R
$$

WIZ038-039-048-051-230500-
FOX VALLEY

CITY           SKY/WX    TMP DP  RH WIND       PRES   REMARKS
NWS GREEN BAY  CLEAR     48  31  51 S7        30.26S
APPLETON       PTCLDY    52  34  50 S8        30.26S
OSHKOSH        MOCLDY    49  28  44 S8        30.26S
FOND DU LAC    MOCLDY    50  25  37 S6        30.27S
$$

WIZ022-050-052-230500-
EAST CENTRAL WISCONSIN

CITY           SKY/WX    TMP DP  RH WIND       PRES   REMARKS
STURGEON BAY   CLEAR     46  19  34 S10       30.30S
MANITOWOC      PTCLDY    47  26  44 S6        30.28S
SHEBOYGAN      MOCLDY    43  28  55 SW5       30.28S
$$

LMZ563-521-522-541>543-230500-
LAKESHORE

STATION/POSITION TIME  TEMP    WIND        PRES    VSBY  WAVE
                       AIR SEA DIR/SP/G                  HT/PER
                 (UTC) (F)     (DEG/KT/KT) (MB)    (MI)  (FT/S)
SHEBOYGAN LKSHOR 0400   49     210/  8/ 10 1025.9F
KEWAUNEE LKSHORE 0300   46     190/  9/ 10 1024.5R
NORTHPORT PIER   0300   47     200/  2/  5 1025.4R
N MID LAKE BUOY  0350   41 36  220/  6/  8 1026.1R         0
SISTER BAY LKSHO 0302   44        CALM       N/A
CHAMBERS ISLAND  0300   44     130/  3/  5 1025.4R
MENOMINEE LKSHOR 0300   50     140/  9/  9 1025.7R
$$


USA.gov is the U.S. government's official web portal to all federal, state and local government web resources and services.